Regional Weather Roundup
Issued by NWS

Home | Current Version | Previous Version | Graphics & Text | Print | Product List | Glossary Off
Versions: 1 2 3 4 5 6 7 8 9 10 11 12 13 14 15 16 17 18 19 20 21 22 23 24 25 26 27 28 29 30 31 32 33 34 35 36 37 38 39 40 41 42 43 44 45 46 47 48 49 50

000
ASUS43 KFSD 250510
RWRSD

WEATHER ROUNDUP FOR SOUTH DAKOTA
NATIONAL WEATHER SERVICE SIOUX FALLS SD
1100 PM CST SAT FEB 24 2018

NOTE: "FAIR" INDICATES FEW OR NO CLOUDS BELOW 12,000 FEET WITH NO
SIGNIFICANT WEATHER AND/OR OBSTRUCTIONS TO VISIBILITY.


SDZ001>005-009-010-012>017-250600-
NORTHWEST AND NORTH CENTRAL SOUTH DAKOTA

CITY           SKY/WX    TMP DP  RH WIND       PRES   REMARKS
BUFFALO          N/A     12   4  70 W20       29.58R WCI  -6
FAITH            N/A     14   8  77 W15       29.65S WCI  -1
MOBRIDGE       MOCLDY    13   6  74 NW9       29.60F WCI   1
$$

SDZ012>016-024>037-041>051-057-063-072>074-250600-
SOUTHWEST AND SOUTH CENTRAL SOUTH DAKOTA

CITY           SKY/WX    TMP DP  RH WIND       PRES   REMARKS
RAPID CTY ARPT PTCLDY    13   5  70 E5        29.70S WCI   5
PIERRE         CLEAR     19  11  70 W17       29.68F WCI   4
CUSTER         PTCLDY    15  -1  49 SW6       29.62F WCI   6
ELLSWORTH AFB  PTCLDY    16   4  58 W5        29.68S WCI   9
PHILIP         CLEAR     10   5  80 W6        29.73F WCI   0
PINE RIDGE     CLEAR     17   9  70 W9        29.76S WCI   6
SPEARFISH        N/A     27   7  43 W16G24    29.67S WCI  14
WINNER         FAIR      21  10  62 W14       29.73S WCI   8
$$

SDZ004>011-016>023-039-040-250600-
NORTHEAST SOUTH DAKOTA

CITY           SKY/WX    TMP DP  RH WIND       PRES   REMARKS
ABERDEEN       CLEAR      6   5  95 SW8       29.62F WCI  -7
WATERTOWN      CLOUDY    13  13 100 W12       29.57S FOG     WCI  -1
BROOKINGS      CLOUDY    13  10  88 W18       29.62R WCI  -4
SISSETON         N/A     15  12  88 W8        29.56F WCI   4
$$

SDZ017-020-022-023-036>040-048>070-250600-
SOUTHEAST SOUTH DAKOTA

CITY           SKY/WX    TMP DP  RH WIND       PRES   REMARKS
SIOUX FALLS    CLOUDY    12   8  84 W16G23    29.68S WCI  -5
HURON          CLEAR      8   5  87 W7        29.68R WCI  -3
CHAMBERLAIN    CLEAR     18  11  74 SW14      29.73R WCI   4
MITCHELL       CLEAR     11   7  84 W14       29.73R WCI  -5
YANKTON        CLEAR     14  10  84 W12       29.74S WCI   0
$$

ABBREVIATIONS USED IN REMARKS
   TC - TEMPERATURE IN CELSIUS
  WCI - WIND CHILL INDEX
   HX - HEAT INDEX
  VSB - VISIBILITY





USA.gov is the U.S. government's official web portal to all federal, state and local government web resources and services.